Time,TemperatureF,DewpointF,PressureIn,WindDirection,WindDirectionDegrees,WindSpeedMPH,WindSpeedGustMPH,Humidity,HourlyPrecipIn,Conditions,Clouds,dailyrainin,SolarRadiationWatts/m^2,SoftwareType,DateUTC
2013-04-19 00:14:00,78.2,71.0,30.02,ENE,63,13.0,21.0,78,0.00,,,0.00,0,weatherlink.com 1.10,2013-04-19 04:14:00,
2013-04-19 00:29:00,78.2,71.0,30.02,ENE,64,9.0,21.0,78,0.00,,,0.00,0,weatherlink.com 1.10,2013-04-19 04:29:00,
2013-04-19 00:44:00,78.3,71.0,30.02,East,81,15.0,23.0,79,0.00,,,0.00,0,weatherlink.com 1.10,2013-04-19 04:44:00,
2013-04-19 00:59:00,78.3,71.0,30.02,East,96,13.0,23.0,78,0.00,,,0.00,0,weatherlink.com 1.10,2013-04-19 04:59:00,
2013-04-19 01:14:00,78.2,71.0,30.01,ENE,74,8.0,22.0,79,0.00,,,0.00,0,weatherlink.com 1.10,2013-04-19 05:14:00,
2013-04-19 01:29:00,78.2,70.0,30.01,ENE,66,16.0,23.0,77,0.00,,,0.00,0,weatherlink.com 1.10,2013-04-19 05:29:00,
2013-04-19 01:45:00,78.2,71.0,30.00,ENE,65,14.0,21.0,79,0.00,,,0.00,0,weatherlink.com 1.10,2013-04-19 05:45:00,
2013-04-19 01:59:00,78.0,70.0,30.00,ESE,105,12.0,25.0,77,0.00,,,0.00,0,weatherlink.com 1.10,2013-04-19 05:59:00,
2013-04-19 02:14:00,78.0,70.0,29.99,East,84,13.0,24.0,77,0.00,,,0.00,0,weatherlink.com 1.10,2013-04-19 06:14:00,
2013-04-19 02:29:00,78.0,71.0,29.99,NE,46,10.0,21.0,78,0.00,,,0.00,0,weatherlink.com 1.10,2013-04-19 06:29:00,
2013-04-19 02:44:00,78.0,71.0,29.98,ENE,73,15.0,25.0,79,0.00,,,0.00,0,weatherlink.com 1.10,2013-04-19 06:44:00,
2013-04-19 02:59:00,78.0,71.0,29.98,East,84,11.0,23.0,78,0.00,,,0.00,0,weatherlink.com 1.10,2013-04-19 06:59:00,
2013-04-19 03:14:00,77.9,70.0,29.98,East,86,11.0,20.0,77,0.00,,,0.00,0,weatherlink.com 1.10,2013-04-19 07:14:00,
2013-04-19 03:29:00,78.0,70.0,29.98,ENE,61,13.0,23.0,77,0.00,,,0.00,0,weatherlink.com 1.10,2013-04-19 07:29:00,
2013-04-19 03:44:00,77.8,70.0,29.98,ENE,60,8.0,15.0,78,0.00,,,0.00,0,weatherlink.com 1.10,2013-04-19 07:44:00,
2013-04-19 03:59:00,77.2,71.0,29.98,SE,131,2.0,13.0,80,0.00,,,0.00,0,weatherlink.com 1.10,2013-04-19 07:59:00,
2013-04-19 04:14:00,77.7,70.0,29.98,East,95,13.0,22.0,78,0.00,,,0.00,0,weatherlink.com 1.10,2013-04-19 08:14:00,
2013-04-19 04:30:00,77.9,71.0,29.98,ENE,72,10.0,22.0,78,0.00,,,0.00,0,weatherlink.com 1.10,2013-04-19 08:30:00,
2013-04-19 04:45:00,78.0,71.0,29.98,ENE,74,7.0,20.0,79,0.00,,,0.00,0,weatherlink.com 1.10,2013-04-19 08:45:00,
2013-04-19 05:00:00,77.9,71.0,29.98,ENE,61,11.0,22.0,78,0.00,,,0.00,0,weatherlink.com 1.10,2013-04-19 09:00:00,
2013-04-19 05:15:00,78.1,71.0,29.99,ENE,71,12.0,23.0,79,0.00,,,0.00,0,weatherlink.com 1.10,2013-04-19 09:15:00,
2013-04-19 05:30:00,78.0,71.0,29.99,East,83,17.0,25.0,78,0.00,,,0.00,0,weatherlink.com 1.10,2013-04-19 09:30:00,
2013-04-19 05:45:00,77.9,71.0,30.00,ENE,74,18.0,22.0,78,0.00,,,0.00,0,weatherlink.com 1.10,2013-04-19 09:45:00,
2013-04-19 06:00:00,78.0,71.0,30.00,East,84,6.0,24.0,79,0.00,,,0.00,0,weatherlink.com 1.10,2013-04-19 10:00:00,
2013-04-19 06:15:00,78.0,71.0,30.01,ENE,77,18.0,22.0,80,0.00,,,0.00,14,weatherlink.com 1.10,2013-04-19 10:15:00,
2013-04-19 06:30:00,77.9,71.0,30.02,NE,37,9.0,22.0,78,0.00,,,0.00,51,weatherlink.com 1.10,2013-04-19 10:30:00,
2013-04-19 06:45:00,78.4,70.0,30.02,ENE,66,13.0,24.0,76,0.00,,,0.00,84,weatherlink.com 1.10,2013-04-19 10:45:00,
2013-04-19 07:00:00,78.7,71.0,30.02,NNE,33,10.0,25.0,77,0.00,,,0.00,169,weatherlink.com 1.10,2013-04-19 11:00:00,
2013-04-19 07:15:00,78.8,71.0,30.02,NNE,28,12.0,23.0,77,0.00,,,0.00,236,weatherlink.com 1.10,2013-04-19 11:15:00,
2013-04-19 07:30:00,79.3,71.0,30.02,NE,54,12.0,24.0,75,0.00,,,0.00,137,weatherlink.com 1.10,2013-04-19 11:30:00,
2013-04-19 07:45:00,79.8,71.0,30.03,East,94,8.0,22.0,74,0.00,,,0.00,118,weatherlink.com 1.10,2013-04-19 11:45:00,
2013-04-19 08:00:00,79.7,71.0,30.03,NE,42,10.0,23.0,74,0.00,,,0.00,352,weatherlink.com 1.10,2013-04-19 12:00:00,
2013-04-19 08:15:00,79.8,70.0,30.04,ENE,57,20.0,24.0,73,0.00,,,0.00,399,weatherlink.com 1.10,2013-04-19 12:15:00,
2013-04-19 08:30:00,80.5,72.0,30.04,NE,52,11.0,25.0,74,0.00,,,0.00,499,weatherlink.com 1.10,2013-04-19 12:30:00,
2013-04-19 08:45:00,80.7,71.0,30.05,East,101,9.0,22.0,73,0.00,,,0.00,241,weatherlink.com 1.10,2013-04-19 12:45:00,
2013-04-19 09:00:00,81.3,71.0,30.05,ENE,72,9.0,19.0,72,0.00,,,0.00,642,weatherlink.com 1.10,2013-04-19 13:00:00,
2013-04-19 09:15:00,81.4,72.0,30.06,NE,50,14.0,24.0,72,0.00,,,0.00,686,weatherlink.com 1.10,2013-04-19 13:15:00,
2013-04-19 09:30:00,81.4,72.0,30.06,ENE,69,17.0,23.0,72,0.00,,,0.00,700,weatherlink.com 1.10,2013-04-19 13:30:00,
2013-04-19 09:45:00,81.8,71.0,30.06,East,84,10.0,24.0,69,0.00,,,0.00,744,weatherlink.com 1.10,2013-04-19 13:45:00,
2013-04-19 10:00:00,82.3,71.0,30.06,ENE,73,25.0,25.0,68,0.00,,,0.00,780,weatherlink.com 1.10,2013-04-19 14:00:00,
2013-04-19 10:15:00,82.9,72.0,30.06,ENE,64,13.0,21.0,69,0.00,,,0.00,835,weatherlink.com 1.10,2013-04-19 14:15:00,
2013-04-19 10:30:00,82.9,71.0,30.05,ENE,71,13.0,23.0,67,0.00,,,0.00,517,weatherlink.com 1.10,2013-04-19 14:30:00,
2013-04-19 10:45:00,83.1,71.0,30.06,ENE,65,12.0,24.0,68,0.00,,,0.00,872,weatherlink.com 1.10,2013-04-19 14:45:00,
2013-04-19 11:00:00,83.2,71.0,30.06,East,83,13.0,22.0,66,0.00,,,0.00,921,weatherlink.com 1.10,2013-04-19 15:00:00,
2013-04-19 11:15:00,83.4,70.0,30.05,East,80,8.0,21.0,65,0.00,,,0.00,668,weatherlink.com 1.10,2013-04-19 15:15:00,
2013-04-19 11:31:00,83.0,70.0,30.05,NE,53,7.0,22.0,66,0.00,,,0.00,520,weatherlink.com 1.10,2013-04-19 15:31:00,
2013-04-19 11:46:00,83.5,71.0,30.05,ENE,74,15.0,20.0,65,0.00,,,0.00,886,weatherlink.com 1.10,2013-04-19 15:46:00,
2013-04-19 12:01:00,83.4,71.0,30.05,NNE,17,12.0,23.0,67,0.00,,,0.00,218,weatherlink.com 1.10,2013-04-19 16:01:00,
2013-04-19 12:16:00,84.0,71.0,30.04,ENE,66,11.0,28.0,65,0.00,,,0.00,990,weatherlink.com 1.10,2013-04-19 16:16:00,
2013-04-19 12:31:00,84.1,71.0,30.04,East,92,10.0,22.0,64,0.00,,,0.00,1007,weatherlink.com 1.10,2013-04-19 16:31:00,
2013-04-19 12:46:00,84.2,72.0,30.04,ENE,69,18.0,25.0,66,0.00,,,0.00,1021,weatherlink.com 1.10,2013-04-19 16:46:00,
2013-04-19 13:01:00,83.6,70.0,30.04,ENE,59,21.0,26.0,64,0.00,,,0.00,986,weatherlink.com 1.10,2013-04-19 17:01:00,
2013-04-19 13:16:00,83.4,70.0,30.03,ENE,74,8.0,25.0,64,0.00,,,0.00,707,weatherlink.com 1.10,2013-04-19 17:16:00,
2013-04-19 13:31:00,83.1,71.0,30.03,East,90,19.0,23.0,66,0.00,,,0.00,715,weatherlink.com 1.10,2013-04-19 17:31:00,
2013-04-19 13:46:00,83.7,70.0,30.02,ENE,76,15.0,21.0,64,0.00,,,0.00,666,weatherlink.com 1.10,2013-04-19 17:46:00,
2013-04-19 14:01:00,83.2,69.0,30.02,ENE,61,14.0,25.0,63,0.00,,,0.00,483,weatherlink.com 1.10,2013-04-19 18:01:00,
2013-04-19 14:16:00,82.8,71.0,30.02,NE,51,14.0,22.0,67,0.00,,,0.00,541,weatherlink.com 1.10,2013-04-19 18:16:00,
2013-04-19 14:31:00,82.8,72.0,30.01,NE,47,11.0,21.0,69,0.00,,,0.00,517,weatherlink.com 1.10,2013-04-19 18:31:00,
2013-04-19 14:46:00,82.2,71.0,30.01,NE,52,15.0,24.0,68,0.00,,,0.00,490,weatherlink.com 1.10,2013-04-19 18:46:00,
2013-04-19 15:01:00,82.4,71.0,30.01,ENE,69,11.0,24.0,68,0.00,,,0.00,496,weatherlink.com 1.10,2013-04-19 19:01:00,
2013-04-19 15:16:00,82.7,72.0,30.01,NE,56,8.0,22.0,69,0.00,,,0.00,464,weatherlink.com 1.10,2013-04-19 19:16:00,
2013-04-19 15:31:00,81.8,70.0,30.01,ENE,70,15.0,26.0,68,0.00,,,0.00,422,weatherlink.com 1.10,2013-04-19 19:31:00,
2013-04-19 15:46:00,81.5,70.0,30.00,NE,56,18.0,21.0,69,0.00,,,0.00,483,weatherlink.com 1.10,2013-04-19 19:46:00,
2013-04-19 16:01:00,81.9,70.0,30.01,ENE,71,19.0,23.0,67,0.00,,,0.00,475,weatherlink.com 1.10,2013-04-19 20:01:00,
2013-04-19 16:16:00,81.8,70.0,30.01,ENE,78,10.0,29.0,68,0.00,,,0.00,496,weatherlink.com 1.10,2013-04-19 20:16:00,
2013-04-19 16:31:00,82.0,71.0,30.01,NE,42,12.0,25.0,70,0.00,,,0.00,480,weatherlink.com 1.10,2013-04-19 20:31:00,
2013-04-19 16:46:00,81.6,70.0,30.01,ENE,76,9.0,24.0,68,0.00,,,0.00,413,weatherlink.com 1.10,2013-04-19 20:46:00,
2013-04-19 17:01:00,81.3,71.0,30.01,ENE,67,8.0,24.0,70,0.00,,,0.00,285,weatherlink.com 1.10,2013-04-19 21:01:00,
2013-04-19 17:16:00,80.5,71.0,30.00,East,80,19.0,23.0,72,0.00,,,0.00,105,weatherlink.com 1.10,2013-04-19 21:16:00,
2013-04-19 17:31:00,80.0,71.0,30.01,NE,49,12.0,24.0,75,0.00,,,0.00,120,weatherlink.com 1.10,2013-04-19 21:31:00,
2013-04-19 17:46:00,79.8,72.0,30.01,ENE,61,15.0,24.0,76,0.00,,,0.00,93,weatherlink.com 1.10,2013-04-19 21:46:00,
2013-04-19 18:01:00,79.6,71.0,30.02,ENE,78,8.0,25.0,74,0.00,,,0.00,65,weatherlink.com 1.10,2013-04-19 22:01:00,
2013-04-19 18:16:00,79.6,71.0,30.02,NE,43,11.0,23.0,75,0.00,,,0.00,58,weatherlink.com 1.10,2013-04-19 22:16:00,
2013-04-19 18:31:00,79.1,70.0,30.02,NE,45,10.0,22.0,74,0.00,,,0.00,21,weatherlink.com 1.10,2013-04-19 22:31:00,
2013-04-19 18:46:00,78.9,70.0,30.02,NE,51,17.0,23.0,73,0.00,,,0.00,5,weatherlink.com 1.10,2013-04-19 22:46:00,
2013-04-19 19:01:00,78.9,70.0,30.03,ENE,61,14.0,23.0,75,0.00,,,0.00,0,weatherlink.com 1.10,2013-04-19 23:01:00,
2013-04-19 19:16:00,78.9,70.0,30.04,NE,50,11.0,22.0,75,0.00,,,0.00,0,weatherlink.com 1.10,2013-04-19 23:16:00,
2013-04-19 19:31:00,78.8,71.0,30.04,ENE,63,16.0,26.0,76,0.00,,,0.00,0,weatherlink.com 1.10,2013-04-19 23:31:00,
2013-04-19 19:46:00,78.8,71.0,30.04,NE,49,11.0,22.0,76,0.00,,,0.00,0,weatherlink.com 1.10,2013-04-19 23:46:00,
2013-04-19 20:01:00,78.6,70.0,30.05,NE,46,13.0,23.0,75,0.00,,,0.00,0,weatherlink.com 1.10,2013-04-20 00:01:00,
2013-04-19 20:16:00,78.8,71.0,30.05,ESE,107,10.0,22.0,76,0.00,,,0.00,0,weatherlink.com 1.10,2013-04-20 00:16:00,
2013-04-19 20:31:00,78.7,71.0,30.05,East,83,8.0,24.0,77,0.00,,,0.00,0,weatherlink.com 1.10,2013-04-20 00:31:00,
2013-04-19 20:46:00,78.7,71.0,30.06,ENE,72,8.0,23.0,77,0.00,,,0.00,0,weatherlink.com 1.10,2013-04-20 00:46:00,
2013-04-19 21:01:00,78.6,71.0,30.06,ENE,77,9.0,22.0,77,0.00,,,0.00,0,weatherlink.com 1.10,2013-04-20 01:01:00,
2013-04-19 21:16:00,78.8,71.0,30.07,ENE,65,11.0,19.0,78,0.00,,,0.00,0,weatherlink.com 1.10,2013-04-20 01:16:00,
2013-04-19 21:31:00,78.4,71.0,30.06,ENE,67,7.0,21.0,77,0.00,,,0.00,0,weatherlink.com 1.10,2013-04-20 01:31:00,
2013-04-19 21:46:00,78.6,71.0,30.07,ENE,74,10.0,22.0,78,0.00,,,0.00,0,weatherlink.com 1.10,2013-04-20 01:46:00,
2013-04-19 22:01:00,78.5,71.0,30.06,NE,49,14.0,22.0,77,0.00,,,0.00,0,weatherlink.com 1.10,2013-04-20 02:01:00,
2013-04-19 22:16:00,78.6,72.0,30.07,East,80,14.0,22.0,79,0.00,,,0.00,0,weatherlink.com 1.10,2013-04-20 02:16:00,
2013-04-19 22:31:00,78.6,71.0,30.07,ENE,77,5.0,26.0,78,0.00,,,0.00,0,weatherlink.com 1.10,2013-04-20 02:31:00,
2013-04-19 22:46:00,78.5,71.0,30.07,NE,42,15.0,24.0,78,0.00,,,0.00,0,weatherlink.com 1.10,2013-04-20 02:46:00,
2013-04-19 23:01:00,78.7,71.0,30.07,NE,55,17.0,24.0,78,0.00,,,0.00,0,weatherlink.com 1.10,2013-04-20 03:01:00,
2013-04-19 23:16:00,78.6,71.0,30.07,NE,55,15.0,21.0,78,0.00,,,0.00,0,weatherlink.com 1.10,2013-04-20 03:16:00,
2013-04-19 23:31:00,78.4,71.0,30.06,ENE,70,16.0,25.0,78,0.00,,,0.00,0,weatherlink.com 1.10,2013-04-20 03:31:00,
2013-04-19 23:46:00,78.4,71.0,30.06,ENE,78,11.0,23.0,79,0.00,,,0.00,0,weatherlink.com 1.10,2013-04-20 03:46:00,